Location: Happy Homes Park
(37.7458°N, 99.9763°W)
Time: 09:39:05
(UTC+00:00)

Daily predictions for brighter satellites

Satellite Brightness Start Highest point End
(mag) Time Altitude Azimuth Time Altitude Azimuth Time Altitude Azimuth
COSMOS 2455 2.9 12:00:28 10° NNW 12:06:30 84° WSW 12:12:30 10° SSE
DMSP B5D2-2 4.1 12:02:45 10° S 12:08:00 77° WSW 12:13:18 10° NNW
Cosmos 1818 3.8 12:02:57 10° SW 12:08:12 50° NW 12:13:32 10° NNE
SJ-12 4.1 12:04:27 10° N 12:08:24 49° WNW 12:12:21 10° SSW
CZ-4C R/B 4.1 12:05:12 10° SSW 12:09:03 35° W 12:13:02 10° NNW
Meteor 1-31 Rocket 3.4 12:05:25 10° NNE 12:09:13 61° E 12:13:02 10° S
Meteor 1-13 Rocket 4.2 12:04:28 10° SSW 12:10:02 70° W 12:15:34 10° N
Cosmos 1862 Rocket 4.0 12:08:08 10° SSW 12:12:22 42° W 12:16:36 10° N
Cosmos 968 Rocket 4.0 12:08:52 10° NW 12:13:31 35° W 12:18:08 10° SSW
Envisat 4.3 12:11:11 10° NNW 12:14:49 20° WNW 12:18:26 10° WSW
